星链-4742 (STARLINK-4742 )

导读 | 星芒AI

STARLINK-4742 是 SpaceX 星链计划中的一颗低轨通信卫星,属于星链第四批发射任务的一部分。该卫星运行在约 550 公里的近地轨道,旨在为全球用户提供高速互联网服务。作为星链星座的重要成员,它与其他卫星协同工作,提升网络覆盖与连接稳定性。星链项目致力于改善偏远地区网络接入,推动全球数字化进程。

基本信息
目录编号:
53795
目录名称:
STARLINK-4742
国际标识:
2022-111Y
轨道中心:
EARTH
卫星名称:
星链-4742
卫星全名:
星链-4742 (STARLINK-4742 )
卫星状态:
在轨 (已飞行1151 天)
发射日期:
2022-09-11 UTC
国别 :
美国 (US)
星等 :
--
轨道信息
数据来源 国际轨道数据
星历时间: 2025-11-04T20:22:50+0800
12小时前
查看轨道信息
半长轴: 6917.887km
偏心率: 0.0001307
轨道倾角: 53.218°
近地点辐角 91.395°
升交点赤经 115.729°
平近点角 268.719°
近地点: 538.847km
远地点: 540.657km
周期: 95.438分钟
每日圈数: 15.088379
详细信息
固有亮度:
5
最大亮度:
2.5
卫星平台:
Starlink v1.5
覆盖范围:
全球
运营商:
太空探索技术公司
运营商所在国:
美国
制造商(研发单位):
太空探索技术公司
制造商所在国:
美国
使用方式:
暂无
卫星简介
星链(Starlink)计划是由太空探索技术公司(SpaceX)提出的一个巨型低轨卫星互联网星座项目,计划在2019年至2024年间在太空搭建由约1.2万颗卫星组成的“星链”网络,其中1584颗将部署在地球上空550千米处的近地轨道,并从2020年开始工作。该卫星仍在工作。
2D轨道图
3D轨道图
轨道高度分析图
轨道倾角分析图
轨道综合分析图
查看轨道综合分析图